weather.gov     
National Weather Service

Regional Weather Roundup
NWS Homepage
This page is being discontinued on March 12, 2014.
The same data is available at this site. Please update your bookmarks.
Thank you, and we apologize for the inconvenience.
Please send an email to SR-SRH.Webmaster@noaa.gov with any concerns.


Current Version
Previous Version:    01  02  03  04  05  06  07  08  09  10  11  12  13  14  15  16  17  18  19  20  21  22  23  24  25  26  
[Printable]
685
ASUS42 KRAH 190110
RWRRAH
NORTH CAROLINA WEATHER ROUNDUP
NATIONAL WEATHER SERVICE RALEIGH NC
900 PM EDT FRI APR 18 2014

NOTE: "FAIR" INDICATES FEW OR NO CLOUDS BELOW 12,000 FEET WITH NO
SIGNIFICANT WEATHER AND/OR OBSTRUCTIONS TO VISIBILITY.

NCZ001-053-055-056-065-067-190200-
WESTERN NORTH CAROLINA

CITY           SKY/WX    TMP DP  RH WIND       PRES   REMARKS
ASHEVILLE      LGT RAIN  47  45  93 CALM      30.24S
JEFFERSON      CLOUDY    46  37  69 CALM      30.26S
MORGANTON      LGT RAIN  49  48  99 N5        30.30S
HICKORY        LGT RAIN  49  45  86 N6        30.25F
RUTHERFORDTON  RAIN      48  46  94 N5        30.25F
MOUNT AIRY     CLOUDY    52  43  72 CALM      30.27R
BOONE          CLOUDY    44  38  77 CALM      30.27S
$$

NCZ021-022-025-041-071-084-088-190200-
CENTRAL NORTH CAROLINA

CITY           SKY/WX    TMP DP  RH WIND       PRES   REMARKS
CHARLOTTE      RAIN      48  46  93 NE8       30.25F FOG
GREENSBORO     LGT RAIN  53  39  59 CALM      30.27R
WINSTON-SALEM  LGT RAIN  52  41  66 CALM      30.28S
RALEIGH-DURHAM LGT RAIN  54  42  64 N3        30.27R
FORT BRAGG     LGT RAIN  58  47  67 N5        30.25R
FAYETTEVILLE   LGT RAIN  57  48  72 N3        30.24R
CHAPEL HILL    LGT RAIN  54  44  69 NE3       30.27S
BURLINGTON     LGT RAIN  54  41  61 N5        30.27R
LAURINBURG     RAIN      53  51  93 NE10      30.23S FOG
$$

NCZ011-015-027-028-043-044-047-080-103-190200-
NORTHEASTERN NORTH CAROLINA

CITY           SKY/WX    TMP DP  RH WIND       PRES   REMARKS
ROCKY MT-WILSO CLOUDY    56  44  64 N10       30.25F
GREENVILLE     CLOUDY    54  45  71 E6        30.27R
WASHINGTON     CLOUDY    53  46  79 NE13      30.26F
ELIZABETH CITY CLOUDY    48  42  80 NE9       30.31S
MANTEO         CLOUDY    46  44  91 NE12G17   30.31R
CAPE HATTERAS  CLOUDY    51  50  96 NE13G21   30.27R
$$

NCZ078-087-090-091-093-098-101-190200-
SOUTHEASTERN NORTH CAROLINA

CITY           SKY/WX    TMP DP  RH WIND       PRES   REMARKS
LUMBERTON      RAIN      55  52  89 NE6       30.21F FOG
GOLDSBORO      LGT RAIN  59  48  67 N5        30.22S
KINSTON        CLOUDY    59  46  63 NE10      30.25R
KENANSVILLE    LGT RAIN  58  48  71 E3        30.24R
NEW BERN       LGT RAIN  57  47  69 NE13      30.26S
CHERRY POINT   CLOUDY    56  42  59 NE15      30.24S
BEAUFORT       CLOUDY    56  48  74 NE15G25   30.22F
JACKSONVILLE   LGT RAIN  54  53  97 NE7       30.23R
WILMINGTON     HVY RAIN  57  54  89 N5        30.24R FOG
$$





U.S. Dept. of Commerce
NOAA National Weather Service
1325 East West Highway
Silver Spring, MD 20910
E-mail: w-nws.webmaster@noaa.gov
Page last modified: May 16, 2007
NATIONAL WEATHER SERVICE: for Safety, for Work, for Fun - FOR LIFE